Photometre #851[NE_1.6_Dp] Glasgow_MO AOT

File : 20220922_851.hum

22/09/2022,07:06:36,TEMP=14.2,BA=5.64,STAT.A,ExtBa=12.10
22/09/2022,07:11:14,TEMP=14.1,BA=5.64,STAT.A,ExtBa=12.10
22/09/2022,07:16:41,TEMP=13.9,BA=5.64,STAT.A,ExtBa=12.10
22/09/2022,07:23:09,TEMP=13.7,BA=5.64,STAT.A,ExtBa=12.10
22/09/2022,07:31:01,TEMP=13.5,BA=5.64,STAT.A,ExtBa=12.10
22/09/2022,07:40:45,TEMP=13.4,BA=5.64,STAT.A,ExtBa=12.10
22/09/2022,07:53:10,TEMP=13.3,BA=5.64,STAT.B,ExtBa=12.10
22/09/2022,07:59:10,TEMP=13.4,BA=5.64,STAT.A,ExtBa=12.10
22/09/2022,08:05:55,TEMP=13.5,BA=5.64,STAT.A,ExtBa=12.10
22/09/2022,08:13:35,TEMP=13.5,BA=5.64,STAT.A,ExtBa=12.10
22/09/2022,08:22:25,TEMP=13.6,BA=5.64,STAT.A,ExtBa=12.10
22/09/2022,08:32:41,TEMP=13.7,BA=5.64,STAT.C,ExtBa=12.10
22/09/2022,08:44:50,TEMP=13.8,BA=5.64,STAT.A,ExtBa=12.10
22/09/2022,08:57:24,TEMP=14.0,BA=5.64,STAT.D,ExtBa=12.10
22/09/2022,08:59:32,TEMP=14.4,BA=5.64,STAT.A,ExtBa=12.10
22/09/2022,09:11:37,TEMP=14.2,BA=5.64,STAT.F,ExtBa=12.10
22/09/2022,09:24:24,TEMP=14.5,BA=5.64,STAT.D,ExtBa=12.10
22/09/2022,09:26:36,TEMP=14.9,BA=5.64,STAT.D,ExtBa=12.10
22/09/2022,09:39:24,TEMP=14.8,BA=5.64,STAT.D,ExtBa=12.10
22/09/2022,09:41:36,TEMP=15.1,BA=5.64,STAT.D,ExtBa=12.10
22/09/2022,09:54:24,TEMP=14.9,BA=5.64,STAT.D,ExtBa=12.10
22/09/2022,09:56:36,TEMP=15.2,BA=5.64,STAT.D,ExtBa=12.10
22/09/2022,10:09:24,TEMP=15.1,BA=5.64,STAT.D,ExtBa=12.10
22/09/2022,10:11:38,TEMP=15.5,BA=5.64,STAT.F,ExtBa=12.10
22/09/2022,10:18:24,TEMP=15.2,BA=5.64,STAT.D,ExtBa=12.10
22/09/2022,10:26:36,TEMP=15.2,BA=5.64,STAT.D,ExtBa=12.10
22/09/2022,10:39:24,TEMP=15.1,BA=5.64,STAT.D,ExtBa=12.10
22/09/2022,10:41:36,TEMP=15.4,BA=5.64,STAT.D,ExtBa=12.10
22/09/2022,10:54:24,TEMP=15.1,BA=5.64,STAT.D,ExtBa=12.10
22/09/2022,10:56:36,TEMP=15.3,BA=5.64,STAT.D,ExtBa=12.10
22/09/2022,11:09:24,TEMP=15.0,BA=5.64,STAT.D,ExtBa=12.10
22/09/2022,11:11:38,TEMP=15.3,BA=5.64,STAT.F,ExtBa=12.10
22/09/2022,11:24:24,TEMP=15.2,BA=5.64,STAT.D,ExtBa=12.10
22/09/2022,11:26:36,TEMP=15.5,BA=5.64,STAT.D,ExtBa=12.10
22/09/2022,11:39:24,TEMP=15.4,BA=5.64,STAT.D,ExtBa=12.10
22/09/2022,11:41:36,TEMP=15.8,BA=5.64,STAT.D,ExtBa=12.10
22/09/2022,11:54:24,TEMP=15.8,BA=5.64,STAT.D,ExtBa=12.10
22/09/2022,11:56:36,TEMP=16.2,BA=5.64,STAT.D,ExtBa=12.00
22/09/2022,12:09:24,TEMP=16.2,BA=5.64,STAT.D,ExtBa=12.10
22/09/2022,12:11:38,TEMP=16.6,BA=5.64,STAT.F,ExtBa=12.10
22/09/2022,12:24:24,TEMP=16.4,BA=5.64,STAT.D,ExtBa=12.10
22/09/2022,12:26:36,TEMP=16.7,BA=5.64,STAT.D,ExtBa=12.10
22/09/2022,12:39:24,TEMP=16.6,BA=5.64,STAT.D,ExtBa=12.10
22/09/2022,12:41:36,TEMP=17.0,BA=5.64,STAT.D,ExtBa=12.10
22/09/2022,12:45:24,TEMP=17.0,BA=5.64,STAT.D,ExtBa=12.10
22/09/2022,12:48:24,TEMP=17.1,BA=5.64,STAT.D,ExtBa=12.10
22/09/2022,12:51:24,TEMP=17.3,BA=5.64,STAT.D,ExtBa=12.10
22/09/2022,12:54:24,TEMP=17.4,BA=5.64,STAT.D,ExtBa=12.00
22/09/2022,12:56:36,TEMP=17.7,BA=5.64,STAT.D,ExtBa=12.00
22/09/2022,13:00:24,TEMP=17.8,BA=5.64,STAT.D,ExtBa=12.10
22/09/2022,13:03:24,TEMP=17.9,BA=5.64,STAT.D,ExtBa=12.00
22/09/2022,13:06:24,TEMP=18.0,BA=5.64,STAT.D,ExtBa=12.00
22/09/2022,13:09:24,TEMP=18.0,BA=5.64,STAT.D,ExtBa=12.00
22/09/2022,13:11:38,TEMP=18.1,BA=5.60,STAT.F,ExtBa=12.00
22/09/2022,13:35:51,TEMP=19.1,BA=5.60,STAT.D,ExtBa=12.00
22/09/2022,13:41:36,TEMP=18.3,BA=5.64,STAT.D,ExtBa=12.00
22/09/2022,13:54:24,TEMP=16.9,BA=5.64,STAT.D,ExtBa=12.00
22/09/2022,13:56:36,TEMP=17.2,BA=5.64,STAT.D,ExtBa=12.00
22/09/2022,14:00:24,TEMP=17.1,BA=5.64,STAT.D,ExtBa=12.00
22/09/2022,14:03:24,TEMP=17.3,BA=5.64,STAT.D,ExtBa=12.00
22/09/2022,14:06:24,TEMP=17.5,BA=5.64,STAT.D,ExtBa=12.00
22/09/2022,14:09:24,TEMP=17.7,BA=5.64,STAT.D,ExtBa=12.00
22/09/2022,14:11:38,TEMP=18.2,BA=5.60,STAT.F,ExtBa=12.00
22/09/2022,14:36:31,TEMP=19.2,BA=5.60,STAT.D,ExtBa=11.90
22/09/2022,14:44:08,TEMP=18.8,BA=5.60,STAT.D,ExtBa=12.00
22/09/2022,14:48:24,TEMP=19.1,BA=5.60,STAT.D,ExtBa=12.00
22/09/2022,14:51:24,TEMP=19.3,BA=5.60,STAT.D,ExtBa=12.00
22/09/2022,14:54:24,TEMP=19.5,BA=5.60,STAT.D,ExtBa=12.00
22/09/2022,14:56:36,TEMP=19.7,BA=5.60,STAT.D,ExtBa=12.00
22/09/2022,15:03:07,TEMP=19.4,BA=5.60,STAT.D,ExtBa=12.00
22/09/2022,15:06:24,TEMP=19.4,BA=5.60,STAT.D,ExtBa=12.00
22/09/2022,15:09:24,TEMP=19.4,BA=5.60,STAT.D,ExtBa=12.00
22/09/2022,15:11:37,TEMP=19.6,BA=5.60,STAT.F,ExtBa=12.00
22/09/2022,15:35:28,TEMP=19.7,BA=5.56,STAT.A,ExtBa=11.90
22/09/2022,15:38:46,TEMP=19.4,BA=5.56,STAT.A,ExtBa=12.00
22/09/2022,15:42:24,TEMP=19.2,BA=5.60,STAT.D,ExtBa=12.00
22/09/2022,15:45:24,TEMP=19.0,BA=5.60,STAT.D,ExtBa=12.00
22/09/2022,15:50:33,TEMP=18.1,BA=5.64,STAT.C,ExtBa=12.00
22/09/2022,16:00:49,TEMP=17.4,BA=5.64,STAT.A,ExtBa=12.00
22/09/2022,16:09:39,TEMP=16.9,BA=5.64,STAT.A,ExtBa=12.00
22/09/2022,16:12:23,TEMP=17.1,BA=5.60,STAT.D,ExtBa=12.00
22/09/2022,16:15:23,TEMP=17.3,BA=5.60,STAT.D,ExtBa=12.00
22/09/2022,16:17:17,TEMP=17.7,BA=5.60,STAT.A,ExtBa=12.00
22/09/2022,16:24:04,TEMP=17.2,BA=5.64,STAT.A,ExtBa=12.00
22/09/2022,16:27:23,TEMP=17.1,BA=5.64,STAT.D,ExtBa=12.00
22/09/2022,16:30:04,TEMP=17.3,BA=5.56,STAT.B,ExtBa=12.00
22/09/2022,16:39:23,TEMP=17.4,BA=5.56,STAT.D,ExtBa=11.90
22/09/2022,16:42:23,TEMP=17.4,BA=5.52,STAT.D,ExtBa=12.00
22/09/2022,16:44:26,TEMP=17.7,BA=5.52,STAT.A,ExtBa=12.00
22/09/2022,16:48:23,TEMP=17.4,BA=5.52,STAT.D,ExtBa=12.00
22/09/2022,16:51:23,TEMP=17.5,BA=5.52,STAT.D,ExtBa=12.00
22/09/2022,16:53:31,TEMP=17.7,BA=5.52,STAT.A,ExtBa=11.90
22/09/2022,16:57:23,TEMP=17.3,BA=5.52,STAT.D,ExtBa=12.00
22/09/2022,17:00:05,TEMP=17.3,BA=5.56,STAT.A,ExtBa=12.00
22/09/2022,17:03:23,TEMP=17.0,BA=5.56,STAT.D,ExtBa=12.00
22/09/2022,17:06:23,TEMP=16.8,BA=5.56,STAT.D,ExtBa=11.90
22/09/2022,17:08:23,TEMP=16.9,BA=5.56,STAT.A,ExtBa=11.90
22/09/2022,17:12:00,TEMP=16.2,BA=5.52,STAT.A,ExtBa=12.00
22/09/2022,17:15:23,TEMP=16.0,BA=5.52,STAT.D,ExtBa=11.90
22/09/2022,17:17:40,TEMP=16.1,BA=5.52,STAT.A,ExtBa=11.90